Estació municipal de Vilalleons (Osona, E.N.Guilleries-Savassona)

Consulta les dades en temps real de l'estació municipal de Vilalleons





Hora UTC 06:25
Temperatura 15.6 ºC
Humitat 93.0 %
Pressió 1022.1 hPa
Pluja 0.0 mm
Velocitat vent 0.0 km/h
Direcció vent E

Webcam

Dades diàries 2026-09-03



Hora UTC (hivern +1h; estiu +2h)
Temperatura (ºC) Humitat (%) Pressió (hPa) Velocitat vent (km/h) Precipitació (mm)
Hora UTC Aire Humitat Pressió Vel. Dir. Vel. Max Dir. Intent. màx 5 min.
00:05 17.2 87.0 1022.0 0.0 SE 0.0 0.0
00:10 17.2 87.0 1022.2 0.0 SE 0.0 0.0
00:15 17.1 87.0 1022.1 0.0 SE 0.0 0.0
00:20 17.1 87.0 1022.1 0.0 SE 0.0 0.0
00:25 17.1 87.0 1022.1 0.0 SE 0.0 0.0
00:30 16.9 87.0 1022.2 0.0 SE 0.0 0.0
00:35 17.0 87.0 1022.1 0.0 SE 0.0 0.0
00:40 16.9 87.0 1022.1 0.0 SE 0.0 0.0
00:45 16.8 87.0 1022.0 0.0 SE 0.0 0.0
00:50 16.8 87.0 1022.0 0.0 SE 0.0 0.0
00:55 16.7 88.0 1022.0 0.0 SE 0.0 0.0
01:00 16.7 88.0 1021.9 0.0 SE 0.0 0.0
01:05 16.6 88.0 1022.0 0.0 SE 0.0 0.0
01:10 16.6 88.0 1022.0 0.0 SE 0.0 0.0
01:15 16.6 88.0 1022.0 0.0 SE 0.0 0.0
01:20 16.5 89.0 1021.9 0.0 SE 0.0 0.0
01:25 16.5 89.0 1022.0 0.0 SE 0.0 0.0
01:30 16.6 89.0 1022.0 0.0 SE 0.0 0.0
01:35 16.6 89.0 1021.9 0.0 SE 0.0 0.0
01:40 16.6 89.0 1021.9 0.0 SE 0.0 0.0
01:45 16.6 89.0 1022.0 0.0 SE 0.0 0.0
01:50 16.6 89.0 1021.9 0.0 SE 0.0 0.0
01:55 16.6 89.0 1021.9 0.0 SE 0.0 0.0
02:00 16.5 89.0 1021.9 0.0 SE 0.0 0.0
02:05 16.4 89.0 1021.9 0.0 SE 0.0 0.0
02:10 16.4 89.0 1021.9 0.0 SE 0.0 0.0
02:15 16.3 89.0 1021.9 0.0 SE 0.0 0.0
02:20 16.3 89.0 1021.9 0.0 SE 0.0 0.0
02:25 16.3 89.0 1021.8 0.0 SE 0.0 0.0
02:30 16.2 89.0 1021.8 0.0 SE 0.0 0.0
02:35 16.2 89.0 1021.8 0.0 SE 0.0 0.0
02:40 16.1 90.0 1021.9 0.0 SE 0.0 0.0
02:45 16.1 90.0 1021.8 0.0 SE 0.0 0.0
02:50 16.1 90.0 1021.8 0.0 SE 0.0 0.0
02:55 16.1 90.0 1021.8 0.0 SE 0.0 0.0
03:00 16.1 90.0 1021.7 0.0 SE 0.0 0.0
03:05 16.0 90.0 1021.7 0.0 SE 0.0 0.0
03:10 15.9 90.0 1021.8 0.0 SE 0.0 0.0
03:15 15.9 90.0 1021.7 0.0 SE 0.0 0.0
03:20 15.9 90.0 1021.7 0.0 SE 0.0 0.0
03:25 15.9 90.0 1021.6 0.0 SE 0.0 0.0
03:30 15.8 90.0 1021.6 0.0 SE 0.0 0.0
03:35 15.8 90.0 1021.6 0.0 SE 0.0 0.0
03:40 15.7 90.0 1021.5 0.0 SE 0.0 0.0
03:45 15.7 91.0 1021.5 0.0 SE 0.0 0.0
03:50 15.7 91.0 1021.4 0.0 SE 0.0 0.0
03:55 15.7 91.0 1021.4 0.0 SE 0.0 0.0
04:00 15.6 91.0 1021.4 0.0 SE 0.0 0.0
04:05 15.6 91.0 1021.4 0.0 SE 0.0 0.0
04:10 15.6 91.0 1021.3 0.0 SE 0.0 0.0
04:15 15.5 91.0 1021.2 0.0 SE 0.0 0.0
04:20 15.4 91.0 1021.4 0.0 SE 0.0 0.0
04:25 15.4 91.0 1021.2 0.0 SE 0.0 0.0
04:30 15.5 92.0 1021.3 0.0 SE 0.0 0.0
04:35 15.4 91.0 1021.3 0.0 SE 0.0 0.0
04:40 15.3 91.0 1021.5 0.0 SE 0.0 0.0
04:45 15.2 91.0 1021.5 0.0 SE 0.0 0.0
04:50 15.2 91.0 1021.5 0.0 SE 0.0 0.0
04:55 15.2 91.0 1021.5 0.0 SE 0.0 0.0
05:00 15.2 92.0 1021.5 0.0 SE 0.0 0.0
05:05 15.2 92.0 1021.5 0.0 SE 0.0 0.0
05:10 15.3 92.0 1021.6 0.0 SE 0.0 0.0
05:15 15.2 91.0 1021.6 0.0 SE 0.0 0.0
05:20 15.1 92.0 1021.8 0.0 SE 0.0 0.0
05:25 15.1 92.0 1021.8 0.0 SE 0.0 0.0
05:30 15.1 92.0 1021.8 0.0 SE 0.0 0.0
05:35 15.1 92.0 1021.8 0.0 SE 0.0 0.0
05:40 15.2 92.0 1021.8 0.0 SE 0.0 0.0
05:45 15.1 92.0 1021.9 0.0 SE 0.0 0.0
05:50 15.1 92.0 1022.0 0.0 SE 0.0 0.0
05:55 15.1 92.0 1022.0 0.0 SE 0.0 0.0
06:00 15.2 93.0 1022.1 0.0 SE 0.0 0.0
06:05 15.2 93.0 1022.2 0.0 E 0.0 0.0
06:10 15.3 93.0 1022.2 3.2 E 3.2 0.0
06:15 15.4 93.0 1022.1 0.0 E 3.2 0.0
06:20 15.4 93.0 1022.2 0.0 E 3.2 0.0
06:25 15.6 93.0 1022.1 0.0 E 3.2 0.0
Màxima 17.2 93.0 1022.2 3.2 E 3.2 0.0
Mínima 15.1 87.0 1021.2
Total 0.0